Starlink 33584

operational
NORAD ID: 62761 Int'l Des: 2025-015 Owner: SPXS Country: US Constellation: starlink
LEOCIRCULAR

About Starlink 33584

Description loading...

Live Position

Loading 3D Globe...

Upcoming Passes

Altitude History

Altitude vs Time

uPlot chart will show altitude changes over time

Two-Line Element Set

1 62761U 25015D 25306.40036530 .00034025 00000-0 11552-2 0 9992
2 62761 53.1602 193.6289 0001409 93.8758 266.2403 15.30213701 44995
Epoch: Nov 2, 2025 • Age: 15 hours

Current Status

Altitude 476.0 km
Velocity 7.63 km/s
Sub-Earth Point 29.60°N, 61.79°W
Launch Date Jan 21, 2025
Age 0.7 years
Type internet

Technical Details

Classification Payload
Mass 575.00 kg
Dry Mass 530.00 kg
Total Mass 575.00 kg
Length 0.30 m
Diameter 4.10 m
Span 29.00 m
Shape Box + pan
Manufacturer SPXS
Bus Type Starlink V2MO
Phase Status In Orbit
Owner/State SPXS/US

Large Constellations

Loading constellations...